SCP
-0 -0 -0 -0 -0 -0 -0 -0 -0 -0 -0 -0 -0 -0 -0 -0 -0 0 0 0 0 0 0 0 0 0 0 0 0 0 0 0 0 0 -0 -0 0 0 0 0 0 0 0 0 0 -0 0
-0 -0 -0 -0 -0 -0 -0 -0 -0 -0 -0 -0 -0 -0 -0 -0 -0 0 0 0 0 0 0 0 0 0 0 0 0 -0 0 0 0 0 -0 0 0 0 0 0 0 0 0 0 -0 -0 0
-0 -0 -0 -0 -0 -0 -0 -0 -0 -0 -0 -0 -0 -0 -0 -0 0 0 0 0 0 0 0 0 0 0 0 0 0 0 -0 0 -0 -0 0 0 0 0 0 0 0 0 0 0 0 0 0
-0 -0 -0 -0 -0 -0 -0 -0 -0 -0 -0 -0 -0 -0 -0 -0 0 0 0 0 0 0 0 0 0 0 -0 0 0 0 0 0 0 -0 0 0 0 0 -0 -0 0 0 0 0 0 0 0
-0 -0 -0 -0 -0 -0 -0 -0 -0 -0 -0 -0 -0 -0 -0 -0 -0 -0 0 0 0 0 0 0 0 0 0 0 0 0 0 0 0 -0 0 0 0 0 0 0 0 0 0 -0 0 0 0
-0 -0 -0 -0 -0 -0 -0 -0 -0 -0 -0 -0 -0 -0 -0 -0 -0 -0 -0 -0 0 0 0 0 0 0 0 0 0 0 0 0 0 0 0 0 0 0 0 0 0 -0 0 0 -0 -0 -0
-0 -0 -0 -0 -0 -0 -0 -0 -0 -0 -0 -0 -0 -0 -0 -0 -0 -0 0 0 0 0 0 0 0 0 0 -0 0 0 0 0 0 0 0 0 0 0 0 -0 -0 -0 -0 -0 -0 0 0
-0 -0 -0 -0 -0 -0 -0 -0 -0 -0 -0 -0 -0 -0 -0 -0 -0 0 0 0 0 0 -0 -0 -0 -0 -0 -0 0 0 0 0 0 0 0 0 0 0 0 0 0 0 0 0 -0 0 0
-0 -0 -0 -0 -0 -0 -0 -0 -0 -0 -0 -0 -0 -0 -0 -0 -0 0 0 0 -0 0 0 0 -0 -0 -0 0 0 0 0 0 0 0 0 0 0 0 -0 -0 0 -0 0 0 -0 0 -0
-0 -0 -0 -0 -0 -0 -0 -0 -0 -0 -0 -0 -0 -0 -0 -0 0 0 0 0 0 0 0 0 0 0 0 -0 0 0 0 0 0 0 0 0 0 0 0 0 0 0 0 0 0 0 0
-0 -0 -0 -0 -0 -0 -0 -0 -0 -0 -0 -0 -0 -0 -0 -0 0 0 0 0 0 0 0 0 0 0 0 0 0 0 0 0 0 0 0 0 0 0 0 0 0 0 0 0 0 0 0
-0 -0 -0 -0 -0 -0 -0 -0 -0 -0 -0 -0 -0 -0 -0 0 0 0 0 0 0 0 0 0 0 0 0 0 0 -0 0 0 0 0 0 -0 -0 -0 0 0 0 0 0 0 0 0 0
-0 -0 -0 -0 -0 -0 -0 -0 -0 -0 -0 -0 -0 -0 -0 -0 0 -0 -0 0 0 0 0 0 0 0 0 -0 0 0 0 0 0 0 0 0 0 0 0 0 0 0 0 0 0 0 0
-0 -0 -0 -0 -0 -0 -0 -0 -0 -0 -0 -0 -0 -0 0 0 0 -0 0 0 0 0 0 0 0 0 0 0 0 0 0 0 0 0 0 0 0 0 -0 0 0 0 0 0 0 0 0
-0 -0 -0 -0 -0 -0 -0 -0 -0 -0 -0 -0 -0 0 0 -0 0 0 0 0 0 0 0 0 0 0 0 0 0 0 0 0 0 0 0 0 0 0 0 0 0 0 0 0 0 0 0
-0 -0 -0 -0 -0 -0 -0 -0 -0 -0 -0 -0 0 0 0 -0 -0 0 0 0 0 0 0 0 0 0 0 0 0 0 0 0 0 0 0 0 0 0 0 0 0 0 0 0 0 0 0
-0 -0 -0 -0 -0 -0 -0 -0 -0 -0 -0 -0 0 0 0 0 0 0 0 0 0 0 0 0 0 0 0 0 0 0 0 0 0 -0 0 0 0 0 0 0 0 0 0 0 0 0 0
-0 -0 -0 -0 -0 -0 -0 -0 -0 -0 -0 0 0 0 0 0 0 0 0 0 0 0 0 0 0 0 0 0 0 0 0 0 -0 0 -0 0 0 0 0 0 0 0 0 0 0 0 0
-0 -0 -0 -0 -0 -0 -0 -0 -0 -0 -0 0 0 0 -0 0 0 0 0 0 0 0 0 0 0 0 0 0 0 0 0 0 0 0 0 0 0 0 0 0 0 0 0 0 0 0 0
-0 -0 -0 -0 -0 -0 -0 -0 -0 -0 -0 0 0 0 0 0 0 0 0 0 0 0 0 0 0 0 0 0 0 0 0 0 0 0 0 0 0 0 0 0 0 0 0 0 0 0 0
-0 -0 -0 -0 -0 -0 -0 -0 -0 -0 -0 0 0 0 0 0 0 0 0 0 0 0 0 0 0 0 0 0 0 0 0 0 0 0 0 0 0 0 0 0 0 0 0 0 0 0 0
-0 -0 -0 -0 -0 -0 -0 -0 -0 -0 -0 0 0 0 0 0 0 0 0 0 0 0 0 0 0 0 0 0 0 0 0 0 -0 -0 0 -0 0 0 0 0 0 0 0 0 0 0 0
0 0 0 0 -0 -0 -0 -0 -0 -0 0 0 0 0 0 0 0 0 0 0 0 0 0 0 0 0 0 0 0 0 0 0 0 0 0 0 0 0 0 0 0 0 0 0 0 0 0
0 -0 -0 0 -0 -0 -0 -0 0 0 0 -0 0 0 0 0 0 0 0 0 -0 0 0 0 0 0 0 0 0 0 0 0 -0 -0 0 0 0 0 0 0 0 0 0 0 0 0 0
0 -0 -0 0 0 0 0 0 0 0 0 -0 0 0 0 0 0 0 -0 0 0 0 0 0 0 0 0 0 0 0 0 0 0 0 0 0 0 0 0 0 0 0 0 0 0 0 0
-0 0 0 0 0 0 0 0 0 0 0 -0 -0 0 -0 0 -0 0 0 0 0 0 0 0 -0 0 0 0 0 0 0 0 0 -0 0 -0 0 0 0 0 0 0 0 0 -0 0 0
0 0 0 0 0 0 0 0 0 0 -0 0 0 0 -0 -0 -0 0 0 0 0 0 0 0 0 0 0 0 0 0 0 0 0 -0 -0 -0 -0 0 -0 0 0 0 0 0 0 0 0
0 0 0 0 0 0 0 0 -0 -0 -0 -0 0 0 0 0 -0 0 0 0 0 0 0 0 0 0 0 0 0 0 0 0 0 -0 -0 0 0 -0 0 0 0 0 0 0 0 0 0
0 0 0 0 0 0 -0 -0 -0 -0 -0 -0 0 0 0 0 0 0 0 0 0 0 0 0 0 0 0 0 0 0 0 0 -0 0 -0 0 -0 -0 -0 -0 -0 -0 -0 0 0 0 0
Wind_Speed_500mb
44 44 44 43 42 41 42 42 41 39 36 31 27 23 21 20 16 13 10 10 10 11 13 15 16 16 14 13 35 21 13 9 23 29 32 27 26 35 14 23 40 17 38 57 53 41 5
45 46 45 45 44 43 43 44 44 42 40 36 30 25 21 19 15 12 10 8 9 10 12 15 16 16 14 14 16 13 17 8 16 26 29 23 27 31 35 36 18 53 52 51 41 37 18
47 47 47 47 47 46 46 46 47 46 43 41 33 25 21 19 15 10 8 8 7 7 9 12 15 17 23 37 5 12 18 10 16 12 19 20 31 38 33 21 52 51 15 14 23 19 14
48 49 49 49 49 47 47 47 48 49 47 45 34 25 20 17 13 8 6 8 7 6 6 6 11 14 22 19 20 28 15 7 15 24 28 29 30 36 22 37 40 18 9 9 17 18 26
49 50 51 52 51 50 47 47 48 51 50 46 35 26 21 15 9 6 5 6 7 5 6 7 8 9 23 11 27 26 25 26 18 17 22 23 24 14 24 11 13 11 10 16 22 39 17
50 51 51 52 51 51 49 47 47 49 51 47 36 29 23 14 4 7 4 3 6 8 8 11 17 14 27 34 33 35 33 26 28 15 21 24 6 5 10 4 16 17 15 17 25 31 35
51 52 53 53 50 49 49 49 47 47 49 46 37 29 20 9 3 8 5 3 6 7 20 25 22 28 20 6 21 25 37 30 28 22 12 28 7 16 25 24 29 22 22 20 27 17 20
51 53 55 53 51 51 50 50 48 46 46 44 34 27 16 7 5 5 6 8 24 23 27 40 54 56 59 32 16 25 36 33 30 14 19 13 23 24 26 31 31 31 29 29 15 10 12
53 54 55 54 52 52 52 51 50 47 43 40 31 22 13 8 4 3 7 9 19 32 14 38 57 60 55 36 29 28 42 43 22 16 18 20 26 33 33 32 29 23 15 11 11 21 8
56 56 55 55 54 53 53 51 50 48 44 37 29 16 5 4 7 10 26 17 30 27 6 13 16 32 48 47 31 38 51 42 23 24 24 22 27 36 30 28 22 17 19 7 18 16 10
57 56 55 55 55 55 54 53 51 49 44 38 26 10 6 6 8 16 23 23 25 7 8 15 14 8 14 54 10 43 53 54 29 26 19 37 21 27 28 31 17 19 15 13 13 14 12
56 55 55 55 57 57 57 55 53 51 46 37 25 11 3 4 8 27 31 21 13 2 11 10 11 13 9 17 39 52 32 50 48 28 31 37 57 31 25 30 26 23 15 13 13 8 21
55 54 56 57 59 60 61 59 55 53 48 36 24 10 5 5 12 29 24 21 4 6 24 18 14 12 5 13 18 22 24 22 23 9 15 28 41 40 45 28 24 10 5 7 11 7 21
53 54 57 59 61 63 64 63 58 53 50 36 22 7 2 5 15 25 19 6 6 18 21 26 25 24 11 16 24 16 21 16 19 20 18 21 33 37 44 35 23 18 15 12 20 13 25
52 53 57 60 63 65 68 68 64 56 49 37 15 8 6 10 16 15 15 3 6 14 24 23 22 13 13 29 26 19 21 26 24 24 28 27 47 42 43 33 27 22 24 20 23 15 15
50 54 58 61 64 68 70 70 68 59 48 36 12 9 10 11 14 12 3 8 8 24 21 23 13 18 20 27 29 32 17 14 27 24 29 14 36 33 42 40 40 19 21 13 3 14 18
50 54 58 61 65 69 70 70 68 62 50 27 4 5 23 28 11 6 4 5 12 41 40 20 21 16 20 24 30 26 10 31 45 49 35 12 7 6 15 34 36 21 9 10 10 12 14
50 53 58 62 66 69 70 68 65 67 53 19 15 8 43 31 11 13 13 17 28 39 52 32 21 24 23 26 17 17 13 17 78 65 23 22 11 13 19 28 31 16 11 23 21 20 5
48 53 58 62 65 68 67 66 64 61 54 40 12 15 59 27 10 11 24 24 33 41 43 28 23 23 29 28 15 25 36 58 81 51 31 23 11 11 18 11 15 14 12 7 7 32 40
48 52 56 59 63 64 64 65 65 58 36 25 16 8 24 50 46 21 11 30 26 54 41 41 23 29 36 31 27 27 32 34 71 65 55 37 10 14 17 22 30 20 28 13 10 9 9
46 50 54 56 59 61 63 67 67 59 43 11 24 12 22 10 22 35 28 23 31 27 37 43 17 30 26 15 26 19 44 48 55 40 48 26 13 31 52 43 37 46 44 41 26 13 14
44 49 50 51 54 57 61 66 64 63 59 71 16 15 26 11 38 27 25 18 26 26 19 21 15 20 17 14 16 33 34 30 26 32 32 14 12 34 41 32 29 39 43 46 37 26 17
43 45 45 45 49 52 56 62 60 61 66 47 41 41 15 31 33 15 10 15 20 23 15 30 28 14 15 27 43 48 52 59 58 39 34 25 12 3 20 32 42 21 22 27 31 15 10
39 41 40 43 45 48 50 53 55 49 50 49 51 29 19 9 21 20 29 25 23 32 19 36 38 18 33 45 52 51 56 53 60 51 56 32 25 14 15 15 17 14 29 27 33 16 34
37 39 38 40 42 44 44 46 48 50 35 40 51 41 20 8 29 26 32 34 35 37 34 30 42 47 50 36 13 15 26 14 18 21 41 21 24 7 14 9 28 39 19 32 26 36 30
33 35 35 39 40 41 41 43 44 44 39 24 33 43 13 14 15 22 25 34 14 18 18 36 48 51 34 11 11 12 6 14 13 22 21 16 4 15 12 4 6 15 35 50 3 6 36
30 33 32 35 37 39 38 40 41 42 38 24 24 46 26 14 20 20 19 17 27 31 10 29 46 33 28 9 9 6 9 18 8 17 25 19 9 12 17 17 11 23 49 42 13 8 46
28 29 29 32 35 37 38 38 39 41 40 29 23 31 39 13 18 9 18 24 22 19 7 35 22 23 13 11 7 7 7 8 9 23 14 10 11 7 7 7 3 45 26 13 15 41 38
26 27 27 31 34 35 36 37 37 37 35 35 24 21 24 23 20 30 24 14 12 10 15 24 16 13 11 6 7 6 6 7 19 8 12 9 8 6 4 4 19 32 17 33 40 36 40
Wind_Direction_500mb
37 32 27 23 19 15 12 9 7 4 357 349 341 337 335 329 316 303 283 274 271 267 265 260 254 255 269 270 255 299 300 268 225 226 212 193 239 248 240 241 257 254 262 268 270 271 116
34 33 28 22 18 15 11 7 4 3 360 352 340 333 330 324 313 295 284 275 275 272 268 259 247 245 247 253 268 260 278 243 213 193 187 215 244 242 265 261 238 260 256 251 270 285 236
26 26 24 18 15 13 9 6 3 2 358 353 344 336 328 321 313 287 278 269 269 272 270 250 236 237 246 238 228 302 301 206 177 167 207 237 247 251 254 277 269 274 272 289 263 250 219
19 17 19 15 11 7 5 3 1 1 360 356 352 343 331 321 314 273 263 262 270 276 275 247 228 244 256 219 249 234 282 222 181 215 254 258 258 268 284 290 294 303 297 284 271 237 235
15 11 13 12 8 5 3 2 359 359 360 359 357 350 338 324 305 242 248 263 253 265 254 235 221 259 266 245 216 215 228 213 218 223 242 260 296 277 283 293 309 283 227 252 264 248 197
13 7 9 10 7 6 3 2 359 359 359 358 357 352 340 324 279 194 216 237 234 248 241 239 212 282 250 226 215 222 215 225 228 214 241 256 300 265 296 235 231 241 215 239 239 248 200
13 6 9 10 7 6 6 4 0 359 358 359 357 356 350 345 177 182 216 254 308 240 220 222 228 224 289 339 204 200 202 214 229 208 221 228 185 228 227 238 241 255 273 261 262 232 154
14 9 10 11 8 6 5 3 1 360 357 359 359 2 11 34 121 187 257 279 330 319 296 272 266 248 264 272 189 204 200 208 230 211 217 267 227 230 241 243 243 248 252 269 296 9 115
11 10 10 11 9 8 6 2 360 359 355 356 358 6 30 73 113 205 306 319 346 321 290 286 239 235 238 252 217 210 202 209 222 219 234 211 241 220 240 260 265 263 230 278 284 309 277
12 11 11 9 9 8 6 3 0 358 355 351 354 0 22 18 332 314 285 338 330 324 319 271 182 221 226 239 231 230 212 203 217 241 223 245 249 251 256 242 250 274 270 253 293 302 267
13 12 12 10 7 7 5 3 360 356 355 348 345 347 22 26 9 17 357 327 315 324 332 151 115 132 206 201 237 209 222 203 220 234 242 256 239 254 261 256 242 234 280 270 257 265 270
11 11 10 10 6 4 3 1 358 355 353 349 338 323 204 291 347 346 335 320 314 10 252 151 129 174 221 244 226 251 243 225 218 233 257 268 277 273 252 267 256 245 233 278 275 260 269
11 10 9 9 5 2 1 359 357 354 350 351 341 307 242 196 358 338 325 327 353 227 334 31 29 28 229 222 218 226 251 219 208 220 255 267 271 277 278 284 288 261 120 275 287 277 247
10 10 8 7 5 2 0 358 356 355 349 352 341 342 183 184 2 330 346 355 262 290 16 4 356 326 300 303 306 270 235 243 222 209 241 263 275 249 253 254 230 232 189 202 237 232 264
10 9 8 6 5 2 1 358 356 357 350 349 356 94 109 36 346 340 340 314 288 360 10 345 324 336 349 333 334 298 260 226 232 211 226 240 252 262 268 268 263 241 225 224 238 226 260
11 10 9 7 5 4 3 0 356 359 354 347 49 131 66 324 340 8 20 258 8 31 17 357 360 10 350 338 331 340 319 339 340 318 344 298 268 243 247 265 266 239 205 246 248 207 249
12 10 9 8 7 8 6 4 359 357 2 357 74 61 360 341 311 252 226 324 13 5 29 9 355 323 339 356 336 326 293 327 19 355 338 334 287 308 339 242 249 279 218 208 157 187 215
13 12 10 10 11 11 10 8 5 0 7 35 44 61 3 343 49 345 38 349 344 31 32 23 358 10 11 335 317 324 324 346 24 9 7 12 278 272 250 285 294 291 252 223 215 254 276
13 14 13 14 14 15 14 11 8 9 359 11 15 44 26 40 55 355 358 7 34 36 37 20 359 2 11 11 332 341 344 342 11 5 14 345 313 328 328 306 294 259 273 223 181 227 250
15 16 16 17 18 18 18 16 12 8 8 33 20 22 18 49 37 35 352 22 8 27 24 6 4 8 5 350 351 320 320 336 346 341 2 355 300 331 276 302 321 305 310 298 164 179 207
16 16 18 20 21 22 22 21 19 14 17 67 39 60 5 13 26 45 53 17 14 11 11 24 7 4 352 336 319 340 339 336 340 342 347 0 298 339 314 314 307 302 282 284 272 230 177
16 18 20 22 24 25 26 26 29 30 44 64 54 10 343 28 48 57 25 17 17 11 5 7 355 346 344 332 339 328 330 326 312 311 316 304 272 314 303 319 323 298 288 272 277 291 295
17 18 22 24 26 28 29 29 30 34 41 39 30 20 337 41 58 51 38 6 1 343 348 338 324 337 358 351 334 319 302 289 281 276 272 277 258 272 273 351 333 295 289 301 305 297 308
17 18 23 25 26 28 30 31 31 34 40 41 29 32 359 23 60 51 16 358 349 2 329 347 356 23 344 325 315 304 296 292 287 278 256 242 244 251 284 320 261 294 332 28 2 11 7
17 18 22 24 27 27 28 28 30 32 31 42 29 32 9 326 13 24 359 19 359 347 348 344 357 349 338 323 305 306 314 311 321 335 39 317 233 244 229 243 281 296 305 1 337 311 17
16 18 25 24 23 22 25 26 25 26 31 30 26 22 17 316 28 20 12 11 348 346 337 342 339 339 343 310 309 314 315 332 320 318 329 344 306 225 247 248 289 23 347 337 35 265 0
13 18 19 17 17 19 21 19 21 25 30 24 21 17 22 324 17 26 34 3 352 1 322 325 340 327 347 327 341 349 305 327 334 328 329 329 328 222 207 244 259 351 331 320 209 348 325
11 14 16 13 13 12 11 12 15 19 17 27 41 18 3 336 310 30 6 347 336 354 325 319 337 9 332 2 11 340 345 301 316 316 302 333 342 6 328 285 269 346 345 26 314 320 333
11 12 11 9 9 8 4 3 5 5 10 18 46 34 357 296 276 310 314 302 328 343 356 334 296 341 356 353 16 306 302 273 320 298 338 354 360 314 254 310 262 308 359 342 351 332 327
Wind_Speed_850mb
44 44 44 43 42 41 42 42 41 39 36 31 27 23 21 20 16 13 10 10 10 11 13 15 16 16 14 13 35 21 13 9 23 29 32 27 26 35 14 23 40 17 38 57 53 41 5
45 46 45 45 44 43 43 44 44 42 40 36 30 25 21 19 15 12 10 8 9 10 12 15 16 16 14 14 16 13 17 8 16 26 29 23 27 31 35 36 18 53 52 51 41 37 18
47 47 47 47 47 46 46 46 47 46 43 41 33 25 21 19 15 10 8 8 7 7 9 12 15 17 23 37 5 12 18 10 16 12 19 20 31 38 33 21 52 51 15 14 23 19 14
48 49 49 49 49 47 47 47 48 49 47 45 34 25 20 17 13 8 6 8 7 6 6 6 11 14 22 19 20 28 15 7 15 24 28 29 30 36 22 37 40 18 9 9 17 18 26
49 50 51 52 51 50 47 47 48 51 50 46 35 26 21 15 9 6 5 6 7 5 6 7 8 9 23 11 27 26 25 26 18 17 22 23 24 14 24 11 13 11 10 16 22 39 17
50 51 51 52 51 51 49 47 47 49 51 47 36 29 23 14 4 7 4 3 6 8 8 11 17 14 27 34 33 35 33 26 28 15 21 24 6 5 10 4 16 17 15 17 25 31 35
51 52 53 53 50 49 49 49 47 47 49 46 37 29 20 9 3 8 5 3 6 7 20 25 22 28 20 6 21 25 37 30 28 22 12 28 7 16 25 24 29 22 22 20 27 17 20
51 53 55 53 51 51 50 50 48 46 46 44 34 27 16 7 5 5 6 8 24 23 27 40 54 56 59 32 16 25 36 33 30 14 19 13 23 24 26 31 31 31 29 29 15 10 12
53 54 55 54 52 52 52 51 50 47 43 40 31 22 13 8 4 3 7 9 19 32 14 38 57 60 55 36 29 28 42 43 22 16 18 20 26 33 33 32 29 23 15 11 11 21 8
56 56 55 55 54 53 53 51 50 48 44 37 29 16 5 4 7 10 26 17 30 27 6 13 16 32 48 47 31 38 51 42 23 24 24 22 27 36 30 28 22 17 19 7 18 16 10
57 56 55 55 55 55 54 53 51 49 44 38 26 10 6 6 8 16 23 23 25 7 8 15 14 8 14 54 10 43 53 54 29 26 19 37 21 27 28 31 17 19 15 13 13 14 12
56 55 55 55 57 57 57 55 53 51 46 37 25 11 3 4 8 27 31 21 13 2 11 10 11 13 9 17 39 52 32 50 48 28 31 37 57 31 25 30 26 23 15 13 13 8 21
55 54 56 57 59 60 61 59 55 53 48 36 24 10 5 5 12 29 24 21 4 6 24 18 14 12 5 13 18 22 24 22 23 9 15 28 41 40 45 28 24 10 5 7 11 7 21
53 54 57 59 61 63 64 63 58 53 50 36 22 7 2 5 15 25 19 6 6 18 21 26 25 24 11 16 24 16 21 16 19 20 18 21 33 37 44 35 23 18 15 12 20 13 25
52 53 57 60 63 65 68 68 64 56 49 37 15 8 6 10 16 15 15 3 6 14 24 23 22 13 13 29 26 19 21 26 24 24 28 27 47 42 43 33 27 22 24 20 23 15 15
50 54 58 61 64 68 70 70 68 59 48 36 12 9 10 11 14 12 3 8 8 24 21 23 13 18 20 27 29 32 17 14 27 24 29 14 36 33 42 40 40 19 21 13 3 14 18
50 54 58 61 65 69 70 70 68 62 50 27 4 5 23 28 11 6 4 5 12 41 40 20 21 16 20 24 30 26 10 31 45 49 35 12 7 6 15 34 36 21 9 10 10 12 14
50 53 58 62 66 69 70 68 65 67 53 19 15 8 43 31 11 13 13 17 28 39 52 32 21 24 23 26 17 17 13 17 78 65 23 22 11 13 19 28 31 16 11 23 21 20 5
48 53 58 62 65 68 67 66 64 61 54 40 12 15 59 27 10 11 24 24 33 41 43 28 23 23 29 28 15 25 36 58 81 51 31 23 11 11 18 11 15 14 12 7 7 32 40
48 52 56 59 63 64 64 65 65 58 36 25 16 8 24 50 46 21 11 30 26 54 41 41 23 29 36 31 27 27 32 34 71 65 55 37 10 14 17 22 30 20 28 13 10 9 9
46 50 54 56 59 61 63 67 67 59 43 11 24 12 22 10 22 35 28 23 31 27 37 43 17 30 26 15 26 19 44 48 55 40 48 26 13 31 52 43 37 46 44 41 26 13 14
44 49 50 51 54 57 61 66 64 63 59 71 16 15 26 11 38 27 25 18 26 26 19 21 15 20 17 14 16 33 34 30 26 32 32 14 12 34 41 32 29 39 43 46 37 26 17
43 45 45 45 49 52 56 62 60 61 66 47 41 41 15 31 33 15 10 15 20 23 15 30 28 14 15 27 43 48 52 59 58 39 34 25 12 3 20 32 42 21 22 27 31 15 10
39 41 40 43 45 48 50 53 55 49 50 49 51 29 19 9 21 20 29 25 23 32 19 36 38 18 33 45 52 51 56 53 60 51 56 32 25 14 15 15 17 14 29 27 33 16 34
37 39 38 40 42 44 44 46 48 50 35 40 51 41 20 8 29 26 32 34 35 37 34 30 42 47 50 36 13 15 26 14 18 21 41 21 24 7 14 9 28 39 19 32 26 36 30
33 35 35 39 40 41 41 43 44 44 39 24 33 43 13 14 15 22 25 34 14 18 18 36 48 51 34 11 11 12 6 14 13 22 21 16 4 15 12 4 6 15 35 50 3 6 36
30 33 32 35 37 39 38 40 41 42 38 24 24 46 26 14 20 20 19 17 27 31 10 29 46 33 28 9 9 6 9 18 8 17 25 19 9 12 17 17 11 23 49 42 13 8 46
28 29 29 32 35 37 38 38 39 41 40 29 23 31 39 13 18 9 18 24 22 19 7 35 22 23 13 11 7 7 7 8 9 23 14 10 11 7 7 7 3 45 26 13 15 41 38
26 27 27 31 34 35 36 37 37 37 35 35 24 21 24 23 20 30 24 14 12 10 15 24 16 13 11 6 7 6 6 7 19 8 12 9 8 6 4 4 19 32 17 33 40 36 40
Wind_Direction_850mb
37 32 27 23 19 15 12 9 7 4 357 349 341 337 335 329 316 303 283 274 271 267 265 260 254 255 269 270 255 299 300 268 225 226 212 193 239 248 240 241 257 254 262 268 270 271 116
34 33 28 22 18 15 11 7 4 3 360 352 340 333 330 324 313 295 284 275 275 272 268 259 247 245 247 253 268 260 278 243 213 193 187 215 244 242 265 261 238 260 256 251 270 285 236
26 26 24 18 15 13 9 6 3 2 358 353 344 336 328 321 313 287 278 269 269 272 270 250 236 237 246 238 228 302 301 206 177 167 207 237 247 251 254 277 269 274 272 289 263 250 219
19 17 19 15 11 7 5 3 1 1 360 356 352 343 331 321 314 273 263 262 270 276 275 247 228 244 256 219 249 234 282 222 181 215 254 258 258 268 284 290 294 303 297 284 271 237 235
15 11 13 12 8 5 3 2 359 359 360 359 357 350 338 324 305 242 248 263 253 265 254 235 221 259 266 245 216 215 228 213 218 223 242 260 296 277 283 293 309 283 227 252 264 248 197
13 7 9 10 7 6 3 2 359 359 359 358 357 352 340 324 279 194 216 237 234 248 241 239 212 282 250 226 215 222 215 225 228 214 241 256 300 265 296 235 231 241 215 239 239 248 200
13 6 9 10 7 6 6 4 0 359 358 359 357 356 350 345 177 182 216 254 308 240 220 222 228 224 289 339 204 200 202 214 229 208 221 228 185 228 227 238 241 255 273 261 262 232 154
14 9 10 11 8 6 5 3 1 360 357 359 359 2 11 34 121 187 257 279 330 319 296 272 266 248 264 272 189 204 200 208 230 211 217 267 227 230 241 243 243 248 252 269 296 9 115
11 10 10 11 9 8 6 2 360 359 355 356 358 6 30 73 113 205 306 319 346 321 290 286 239 235 238 252 217 210 202 209 222 219 234 211 241 220 240 260 265 263 230 278 284 309 277
12 11 11 9 9 8 6 3 0 358 355 351 354 0 22 18 332 314 285 338 330 324 319 271 182 221 226 239 231 230 212 203 217 241 223 245 249 251 256 242 250 274 270 253 293 302 267
13 12 12 10 7 7 5 3 360 356 355 348 345 347 22 26 9 17 357 327 315 324 332 151 115 132 206 201 237 209 222 203 220 234 242 256 239 254 261 256 242 234 280 270 257 265 270
11 11 10 10 6 4 3 1 358 355 353 349 338 323 204 291 347 346 335 320 314 10 252 151 129 174 221 244 226 251 243 225 218 233 257 268 277 273 252 267 256 245 233 278 275 260 269
11 10 9 9 5 2 1 359 357 354 350 351 341 307 242 196 358 338 325 327 353 227 334 31 29 28 229 222 218 226 251 219 208 220 255 267 271 277 278 284 288 261 120 275 287 277 247
10 10 8 7 5 2 0 358 356 355 349 352 341 342 183 184 2 330 346 355 262 290 16 4 356 326 300 303 306 270 235 243 222 209 241 263 275 249 253 254 230 232 189 202 237 232 264
10 9 8 6 5 2 1 358 356 357 350 349 356 94 109 36 346 340 340 314 288 360 10 345 324 336 349 333 334 298 260 226 232 211 226 240 252 262 268 268 263 241 225 224 238 226 260
11 10 9 7 5 4 3 0 356 359 354 347 49 131 66 324 340 8 20 258 8 31 17 357 360 10 350 338 331 340 319 339 340 318 344 298 268 243 247 265 266 239 205 246 248 207 249
12 10 9 8 7 8 6 4 359 357 2 357 74 61 360 341 311 252 226 324 13 5 29 9 355 323 339 356 336 326 293 327 19 355 338 334 287 308 339 242 249 279 218 208 157 187 215
13 12 10 10 11 11 10 8 5 0 7 35 44 61 3 343 49 345 38 349 344 31 32 23 358 10 11 335 317 324 324 346 24 9 7 12 278 272 250 285 294 291 252 223 215 254 276
13 14 13 14 14 15 14 11 8 9 359 11 15 44 26 40 55 355 358 7 34 36 37 20 359 2 11 11 332 341 344 342 11 5 14 345 313 328 328 306 294 259 273 223 181 227 250
15 16 16 17 18 18 18 16 12 8 8 33 20 22 18 49 37 35 352 22 8 27 24 6 4 8 5 350 351 320 320 336 346 341 2 355 300 331 276 302 321 305 310 298 164 179 207
16 16 18 20 21 22 22 21 19 14 17 67 39 60 5 13 26 45 53 17 14 11 11 24 7 4 352 336 319 340 339 336 340 342 347 0 298 339 314 314 307 302 282 284 272 230 177
16 18 20 22 24 25 26 26 29 30 44 64 54 10 343 28 48 57 25 17 17 11 5 7 355 346 344 332 339 328 330 326 312 311 316 304 272 314 303 319 323 298 288 272 277 291 295
17 18 22 24 26 28 29 29 30 34 41 39 30 20 337 41 58 51 38 6 1 343 348 338 324 337 358 351 334 319 302 289 281 276 272 277 258 272 273 351 333 295 289 301 305 297 308
17 18 23 25 26 28 30 31 31 34 40 41 29 32 359 23 60 51 16 358 349 2 329 347 356 23 344 325 315 304 296 292 287 278 256 242 244 251 284 320 261 294 332 28 2 11 7
17 18 22 24 27 27 28 28 30 32 31 42 29 32 9 326 13 24 359 19 359 347 348 344 357 349 338 323 305 306 314 311 321 335 39 317 233 244 229 243 281 296 305 1 337 311 17
16 18 25 24 23 22 25 26 25 26 31 30 26 22 17 316 28 20 12 11 348 346 337 342 339 339 343 310 309 314 315 332 320 318 329 344 306 225 247 248 289 23 347 337 35 265 0
13 18 19 17 17 19 21 19 21 25 30 24 21 17 22 324 17 26 34 3 352 1 322 325 340 327 347 327 341 349 305 327 334 328 329 329 328 222 207 244 259 351 331 320 209 348 325
11 14 16 13 13 12 11 12 15 19 17 27 41 18 3 336 310 30 6 347 336 354 325 319 337 9 332 2 11 340 345 301 316 316 302 333 342 6 328 285 269 346 345 26 314 320 333
11 12 11 9 9 8 4 3 5 5 10 18 46 34 357 296 276 310 314 302 328 343 356 334 296 341 356 353 16 306 302 273 320 298 338 354 360 314 254 310 262 308 359 342 351 332 327